• In Hungary
  • List of Countries
  • For 7 days
  • Water Temperature
  • Satellite Maps
  • Weather Map
  • News
  • Weather Widgets
  • user-avatar
    Login

    Hourly Weather Michalczowa

    Today, 19 January, Friday

    Time Temperature Precipitation Wind Pressure Humidity
    00:00 -1°C° 0 mm 8 mps 715 mmHg 70%
    01:00 0°C° 0 mm 5 mps 715 mmHg 75%
    02:00 0°C° 0.1 mm 5 mps 715 mmHg 75%
    03:00 -2°C° 0.1 mm 6 mps 716 mmHg 74%
    04:00 -2°C° 0.1 mm 6 mps 716 mmHg 74%
    05:00 -2°C° 0 mm 6 mps 716 mmHg 75%
    06:00 -3°C° 0 mm 6 mps 717 mmHg 76%
    07:00 -3°C° 0 mm 6 mps 717 mmHg 77%
    08:00 -2°C° 0 mm 6 mps 718 mmHg 75%
    09:00 -2°C° 0 mm 7 mps 719 mmHg 72%
    10:00 -1°C° 0 mm 7 mps 720 mmHg 70%
    11:00 -1°C° 0 mm 7 mps 720 mmHg 69%
    12:00 -1°C° 0 mm 6 mps 720 mmHg 68%
    13:00 -1°C° 0 mm 6 mps 721 mmHg 67%
    14:00 0°C° 0 mm 5 mps 721 mmHg 71%
    15:00 -1°C° 0 mm 4 mps 722 mmHg 75%
    16:00 -1°C° 0 mm 3 mps 722 mmHg 79%
    17:00 -1°C° 0 mm 2 mps 723 mmHg 83%
    18:00 -2°C° 0 mm 2 mps 723 mmHg 86%
    19:00 0°C° 0 mm 1 mps 723 mmHg 89%
    20:00 0°C° 0 mm 1 mps 724 mmHg 89%
    21:00 0°C° 0 mm 1 mps 724 mmHg 89%
    22:00 0°C° 0 mm 1 mps 724 mmHg 89%
    23:00 0°C° 0 mm 1 mps 725 mmHg 89%

    Tomorrow, 20 January, Saturday

    Time Temperature Precipitation Wind Pressure Humidity
    00:00 0°C° 0 mm 1 mps 725 mmHg 89%
    01:00 0°C° 0 mm 1 mps 725 mmHg 89%
    02:00 -1°C° 0 mm 1 mps 725 mmHg 89%
    03:00 -1°C° 0 mm 1 mps 725 mmHg 90%
    04:00 -1°C° 0 mm 1 mps 724 mmHg 90%
    05:00 -1°C° 0 mm 1 mps 725 mmHg 89%
    06:00 -1°C° 0 mm 1 mps 725 mmHg 88%
    07:00 -2°C° 0 mm 1 mps 725 mmHg 88%
    08:00 -3°C° 0 mm 2 mps 725 mmHg 83%
    09:00 -2°C° 0 mm 2 mps 725 mmHg 78%
    10:00 -1°C° 0 mm 2 mps 725 mmHg 73%
    11:00 +1°C° 0 mm 2 mps 724 mmHg 71%
    12:00 +1°C° 0 mm 2 mps 724 mmHg 68%
    13:00 +2°C° 0 mm 2 mps 724 mmHg 66%
    14:00 +1°C° 0 mm 2 mps 723 mmHg 70%
    15:00 +1°C° 0 mm 2 mps 723 mmHg 75%
    16:00 +1°C° 0 mm 1 mps 723 mmHg 79%
    17:00 +1°C° 0.2 mm 1 mps 723 mmHg 82%
    18:00 0°C° 0.2 mm 1 mps 723 mmHg 86%
    19:00 0°C° 0.2 mm 1 mps 722 mmHg 89%
    20:00 0°C° 0.3 mm 1 mps 722 mmHg 90%
    21:00 0°C° 0.3 mm 1 mps 722 mmHg 92%
    22:00 0°C° 0.3 mm 1 mps 722 mmHg 93%
    23:00 -1°C° 0 mm 1 mps 722 mmHg 92%

    Day after tomorrow, 21 January, Sunday

    Time Temperature Precipitation Wind Pressure Humidity
    00:00 -1°C° 0 mm 1 mps 722 mmHg 92%
    01:00 -1°C° 0 mm 1 mps 722 mmHg 92%
    02:00 -1°C° 0 mm 1 mps 722 mmHg 91%
    03:00 -1°C° 0 mm 1 mps 722 mmHg 90%
    04:00 -1°C° 0 mm 1 mps 722 mmHg 89%
    05:00 -1°C° 0.2 mm 1 mps 722 mmHg 90%
    06:00 -1°C° 0.2 mm 1 mps 722 mmHg 91%
    07:00 -2°C° 0.2 mm 0 mps 723 mmHg 92%
    08:00 -1°C° 0.3 mm 1 mps 723 mmHg 92%
    09:00 0°C° 0.3 mm 1 mps 723 mmHg 91%
    10:00 0°C° 0.3 mm 1 mps 723 mmHg 91%
    11:00 0°C° 0.4 mm 1 mps 723 mmHg 91%
    12:00 -2°C° 0.4 mm 2 mps 723 mmHg 91%
    13:00 -1°C° 0.4 mm 2 mps 723 mmHg 90%
    14:00 -2°C° 0.4 mm 3 mps 724 mmHg 91%
    15:00 -2°C° 0.4 mm 3 mps 724 mmHg 91%
    16:00 -2°C° 0.4 mm 3 mps 725 mmHg 91%
    17:00 -2°C° 0.2 mm 3 mps 725 mmHg 92%
    18:00 -4°C° 0.2 mm 3 mps 726 mmHg 92%
    19:00 -4°C° 0.2 mm 3 mps 727 mmHg 92%
    20:00 -3°C° 0.1 mm 2 mps 727 mmHg 93%
    21:00 -4°C° 0.1 mm 2 mps 727 mmHg 93%
    22:00 -4°C° 0.1 mm 2 mps 728 mmHg 93%
    23:00 -4°C° 0.1 mm 2 mps 728 mmHg 93%

    22 January, Monday

    Time Temperature Precipitation Wind Pressure Humidity
    00:00 -4°C° 0.1 mm 2 mps 728 mmHg 94%
    01:00 -4°C° 0.1 mm 2 mps 729 mmHg 94%
    02:00 -4°C° 0 mm 2 mps 729 mmHg 94%
    03:00 -4°C° 0 mm 2 mps 729 mmHg 94%
    04:00 -4°C° 0 mm 2 mps 729 mmHg 94%
    05:00 -5°C° 0.1 mm 2 mps 730 mmHg 93%
    06:00 -5°C° 0.1 mm 2 mps 730 mmHg 93%
    07:00 -3°C° 0.1 mm 1 mps 731 mmHg 93%
    08:00 -2°C° 0 mm 1 mps 731 mmHg 90%
    09:00 -2°C° 0 mm 1 mps 731 mmHg 87%
    10:00 -1°C° 0 mm 1 mps 731 mmHg 83%
    11:00 -1°C° 0 mm 1 mps 731 mmHg 80%
    12:00 -1°C° 0 mm 1 mps 731 mmHg 77%
    13:00 0°C° 0 mm 1 mps 731 mmHg 74%
    14:00 -1°C° 0 mm 1 mps 730 mmHg 77%
    15:00 -3°C° 0 mm 2 mps 730 mmHg 80%
    16:00 -4°C° 0 mm 2 mps 729 mmHg 83%
    17:00 -5°C° 0 mm 3 mps 729 mmHg 83%
    18:00 -5°C° 0 mm 3 mps 729 mmHg 83%
    19:00 -7°C° 0 mm 4 mps 729 mmHg 83%
    20:00 -5°C° 0 mm 4 mps 728 mmHg 82%
    21:00 -5°C° 0 mm 4 mps 728 mmHg 81%
    22:00 -5°C° 0 mm 4 mps 728 mmHg 80%
    23:00 -5°C° 0.1 mm 4 mps 728 mmHg 81%

    23 January, Tuesday

    Time Temperature Precipitation Wind Pressure Humidity
    00:00 -4°C° 0.1 mm 4 mps 727 mmHg 82%
    01:00 -4°C° 0.1 mm 4 mps 727 mmHg 83%
    02:00 -4°C° 0.2 mm 4 mps 727 mmHg 84%
    03:00 -4°C° 0.2 mm 4 mps 727 mmHg 85%
    04:00 -4°C° 0.2 mm 4 mps 727 mmHg 85%
    05:00 -4°C° 0.2 mm 3 mps 727 mmHg 87%
    06:00 -4°C° 0.2 mm 3 mps 728 mmHg 88%
    07:00 -4°C° 0.2 mm 3 mps 728 mmHg 89%
    08:00 -4°C° 0.2 mm 3 mps 729 mmHg 89%
    09:00 -2°C° 0.2 mm 3 mps 730 mmHg 88%
    10:00 -2°C° 0.2 mm 2 mps 730 mmHg 88%
    11:00 -2°C° 0.1 mm 3 mps 731 mmHg 88%
    12:00 -1°C° 0.1 mm 3 mps 731 mmHg 88%
    13:00 -1°C° 0.1 mm 3 mps 731 mmHg 89%
    14:00 -1°C° 0.1 mm 2 mps 732 mmHg 90%
    15:00 -1°C° 0.1 mm 2 mps 732 mmHg 91%
    16:00 -1°C° 0.1 mm 2 mps 732 mmHg 92%
    17:00 -1°C° 0.1 mm 2 mps 732 mmHg 93%
    18:00 -1°C° 0.1 mm 2 mps 733 mmHg 93%
    19:00 -1°C° 0.1 mm 2 mps 733 mmHg 93%
    20:00 -1°C° 0.1 mm 2 mps 733 mmHg 92%
    21:00 -1°C° 0.1 mm 2 mps 733 mmHg 92%
    22:00 -1°C° 0.1 mm 2 mps 733 mmHg 91%
    23:00 -1°C° 0.2 mm 2 mps 733 mmHg 91%

    24 January, Wednesday

    Time Temperature Precipitation Wind Pressure Humidity
    00:00 -1°C° 0.2 mm 2 mps 733 mmHg 91%
    01:00 +1°C° 0.2 mm 2 mps 733 mmHg 91%
    02:00 +1°C° 0.7 mm 2 mps 733 mmHg 93%
    03:00 +1°C° 0.7 mm 2 mps 733 mmHg 94%
    04:00 +1°C° 0.7 mm 2 mps 733 mmHg 95%
    05:00 +1°C° 0.6 mm 2 mps 734 mmHg 95%
    06:00 +1°C° 0.6 mm 2 mps 734 mmHg 96%
    07:00 +1°C° 0.6 mm 2 mps 735 mmHg 96%
    08:00 +1°C° 0.3 mm 2 mps 735 mmHg 96%
    09:00 +2°C° 0.3 mm 2 mps 736 mmHg 97%
    10:00 +1°C° 0.3 mm 3 mps 736 mmHg 97%
    11:00 +2°C° 0.1 mm 2 mps 737 mmHg 96%
    12:00 +2°C° 0.1 mm 2 mps 737 mmHg 95%
    13:00 +3°C° 0.1 mm 2 mps 737 mmHg 94%
    14:00 +3°C° 0 mm 1 mps 737 mmHg 94%
    15:00 +2°C° 0 mm 1 mps 738 mmHg 94%
    16:00 +1°C° 0 mm 0 mps 738 mmHg 93%
    17:00 +1°C° 0 mm 1 mps 738 mmHg 93%
    18:00 +1°C° 0 mm 1 mps 738 mmHg 93%
    19:00 +1°C° 0 mm 1 mps 738 mmHg 92%
    20:00 0°C° 0 mm 1 mps 738 mmHg 92%
    21:00 0°C° 0 mm 1 mps 739 mmHg 92%
    22:00 -2°C° 0 mm 2 mps 739 mmHg 91%
    23:00 -2°C° 0 mm 2 mps 738 mmHg 90%
    Show more